User: anonymous   Login
Location: Unspecified
(0.0000°N, 0.0000°E)
Time: 18:10:36
(UTC+00:00)
Language:

COSMOS 2453 - Orbit

View from above orbital plane
View from above orbital plane
View from above satellite
View from above satellite

Ground track
Ground track

The orbit is defined by the following mean orbital elements,

1 35500U          26145.50306208 +.00000000 +00000-0 +26853-3 0 00005
2 35500  82.4865 101.9957 0005923 208.5329 151.5427 12.41519383    00
Epoch (UTC): 25 May 2026 12:04:24
Eccentricity: 0.0005923
inclination: 82.4865°
perigee height: 1496 km
apogee height: 1505 km
right ascension of ascending node: 101.9957°
argument of perigee: 208.5329°
revolutions per day: 12.41519383
mean anomaly at epoch: 151.5427°

The dashed part of the orbit path shows where the satellite is in the earth's shadow,  

DLR